TimeEDT,TemperatureF,Dew PointF,Humidity,Sea Level PressureIn,VisibilityMPH,Wind Direction,Wind SpeedMPH,Gust SpeedMPH,PrecipitationIn,Events,Conditions,WindDirDegrees,DateUTC
12:15 AM,64.4,60.8,88,30.10,10.0,SSE,3.5,-,N/A,,Overcast,160,2013-10-06 04:15:00
12:53 AM,64.0,61.0,90,30.10,10.0,Calm,Calm,-,N/A,,Overcast,0,2013-10-06 04:53:00
1:53 AM,64.0,61.0,90,30.11,10.0,SSE,3.5,-,N/A,,Overcast,160,2013-10-06 05:53:00
2:53 AM,64.0,61.0,90,30.09,10.0,South,4.6,-,N/A,,Overcast,170,2013-10-06 06:53:00
3:09 AM,64.4,60.8,88,30.09,10.0,South,4.6,-,N/A,,Mostly Cloudy,170,2013-10-06 07:09:00
3:18 AM,64.4,60.8,88,30.08,10.0,SSE,3.5,-,N/A,,Overcast,160,2013-10-06 07:18:00
3:53 AM,64.0,61.0,90,30.09,10.0,SE,3.5,-,N/A,,Overcast,130,2013-10-06 07:53:00
4:53 AM,63.0,61.0,93,30.09,5.0,Calm,Calm,-,0.02,Rain,Light Rain,0,2013-10-06 08:53:00
5:53 AM,63.0,62.1,97,30.10,7.0,Calm,Calm,-,0.02,Rain,Light Rain,0,2013-10-06 09:53:00
6:22 AM,62.6,60.8,94,30.11,3.0,Calm,Calm,-,0.08,Rain,Rain,0,2013-10-06 10:22:00
6:36 AM,62.6,60.8,94,30.11,2.0,Calm,Calm,-,0.17,Rain,Heavy Rain,0,2013-10-06 10:36:00
6:40 AM,62.6,60.8,94,30.12,1.8,Calm,Calm,-,0.22,Rain,Rain,0,2013-10-06 10:40:00
6:53 AM,62.1,61.0,96,30.12,2.5,ESE,3.5,-,0.32,Rain,Light Rain,120,2013-10-06 10:53:00
7:00 AM,62.6,60.8,94,30.12,7.0,ESE,3.5,-,0.00,Rain,Light Rain,110,2013-10-06 11:00:00
7:15 AM,62.6,60.8,94,30.12,7.0,Calm,Calm,-,0.00,,Overcast,0,2013-10-06 11:15:00
7:36 AM,62.6,60.8,94,30.13,1.5,Calm,Calm,-,0.08,Rain,Heavy Rain,0,2013-10-06 11:36:00
7:50 AM,62.6,60.8,94,30.14,3.0,Calm,Calm,-,0.15,Rain,Rain,0,2013-10-06 11:50:00
7:53 AM,62.1,61.0,96,30.14,3.0,Calm,Calm,-,0.16,Rain,Rain,0,2013-10-06 11:53:00
7:55 AM,62.6,60.8,94,30.14,2.5,Variable,5.8,-,0.01,Rain,Heavy Rain,0,2013-10-06 11:55:00
7:58 AM,62.6,60.8,94,30.14,1.8,ESE,9.2,-,0.03,Rain,Heavy Rain,110,2013-10-06 11:58:00
8:06 AM,62.6,59.0,88,30.14,1.8,ESE,5.8,-,0.05,Rain,Rain,110,2013-10-06 12:06:00
8:13 AM,60.8,59.0,94,30.15,2.5,East,4.6,-,0.07,Rain,Heavy Rain,100,2013-10-06 12:13:00
8:29 AM,60.8,59.0,94,30.15,6.0,East,5.8,-,0.10,Rain,Light Rain,100,2013-10-06 12:29:00
8:53 AM,59.0,55.9,90,30.17,8.0,ENE,9.2,-,0.10,Rain,Light Rain,70,2013-10-06 12:53:00
9:53 AM,59.0,55.9,90,30.17,8.0,Calm,Calm,-,0.06,Rain,Light Rain,0,2013-10-06 13:53:00
10:25 AM,57.2,55.4,94,30.17,1.8,Calm,Calm,-,0.10,Rain,Heavy Rain,0,2013-10-06 14:25:00
10:40 AM,57.2,57.2,100,30.18,3.0,Calm,Calm,-,0.15,Rain,Light Rain,0,2013-10-06 14:40:00
10:53 AM,59.0,55.9,90,30.18,8.0,ENE,3.5,-,0.16,Rain,Light Rain,60,2013-10-06 14:53:00
11:08 AM,59.0,57.2,94,30.18,9.0,Calm,Calm,-,0.00,Rain,Light Rain,0,2013-10-06 15:08:00
11:53 AM,59.0,57.0,93,30.17,7.0,NE,3.5,-,0.06,Rain,Light Rain,50,2013-10-06 15:53:00
12:53 PM,59.0,57.0,93,30.17,4.0,NE,5.8,-,0.11,Rain,Rain,40,2013-10-06 16:53:00
1:53 PM,59.0,57.0,93,30.15,10.0,NE,5.8,-,0.07,,Overcast,40,2013-10-06 17:53:00
2:53 PM,60.1,57.0,90,30.14,10.0,NE,5.8,-,N/A,,Overcast,50,2013-10-06 18:53:00
3:04 PM,60.8,57.2,88,30.14,8.0,NNE,5.8,-,N/A,,Overcast,30,2013-10-06 19:04:00
3:53 PM,60.1,57.9,93,30.14,3.0,NNE,4.6,-,N/A,,Overcast,20,2013-10-06 19:53:00
4:08 PM,60.8,57.2,88,30.13,2.0,NNE,4.6,-,N/A,,Overcast,20,2013-10-06 20:08:00
4:16 PM,60.8,57.2,88,30.13,1.8,North,4.6,-,N/A,,Overcast,10,2013-10-06 20:16:00
4:53 PM,60.1,57.9,93,30.13,1.5,North,4.6,-,N/A,,Overcast,10,2013-10-06 20:53:00
5:53 PM,59.0,57.9,96,30.14,1.5,North,5.8,-,0.01,,Overcast,10,2013-10-06 21:53:00
6:28 PM,59.0,57.2,94,30.13,2.0,NNE,5.8,-,N/A,,Overcast,20,2013-10-06 22:28:00
6:53 PM,59.0,59.0,100,30.14,2.0,NNE,3.5,-,0.01,,Overcast,30,2013-10-06 22:53:00
7:53 PM,59.0,57.9,96,30.14,2.5,Calm,Calm,-,0.01,,Overcast,0,2013-10-06 23:53:00
8:22 PM,60.8,57.2,88,30.13,4.0,East,3.5,-,N/A,,Overcast,90,2013-10-07 00:22:00
8:53 PM,59.0,57.9,96,30.13,6.0,Calm,Calm,-,N/A,,Overcast,0,2013-10-07 00:53:00
9:53 PM,60.1,57.9,93,30.12,10.0,Calm,Calm,-,N/A,,Overcast,0,2013-10-07 01:53:00
10:53 PM,60.1,57.9,93,30.11,10.0,Calm,Calm,-,N/A,,Overcast,0,2013-10-07 02:53:00
11:53 PM,60.1,57.9,93,30.09,10.0,Calm,Calm,-,N/A,,Overcast,0,2013-10-07 03:53:00